Location: Sungai Bunut
(2.6333°N, 113.7333°E)
Time: 18:48:19
(UTC+00:00)

ADEOS - Pass Details

Date: 16 October 2021
Orbit: 793 x 794 km, 98.9° (Epoch: 08 December)

Event Time Altitude Azimuth Distance (km) Brightness Sun altitude
Rises 21:27:53 0° 10° (N) 3,279 6.8 -10.9°
Reaches altitude 10° 21:30:12 10° 10° (N) 2,351 6.0 -10.4°
Maximum altitude 21:35:23 80° 284° (WNW) 806 3.5 -9.1°
Drops below altitude 10° 21:40:36 10° 196° (SSW) 2,359 6.0 -7.8°
Sets 21:42:56 0° 195° (SSW) 3,290 6.7 -7.2°
